TimeMDT,TemperatureF,Dew PointF,Humidity,Sea Level PressureIn,VisibilityMPH,Wind Direction,Wind SpeedMPH,Gust SpeedMPH,PrecipitationIn,Events,Conditions,WindDirDegrees,DateUTC
12:53 AM,24.1,12.9,62,30.09,10.0,West,9.2,-,N/A,,Clear,270,2013-04-16 06:53:00
1:53 AM,26.1,12.9,58,30.12,10.0,WNW,10.4,-,N/A,,Overcast,300,2013-04-16 07:53:00
2:53 AM,25.0,14.0,63,30.12,10.0,NW,5.8,-,N/A,,Mostly Cloudy,310,2013-04-16 08:53:00
3:53 AM,25.0,14.0,63,30.10,10.0,Calm,Calm,-,N/A,,Scattered Clouds,0,2013-04-16 09:53:00
4:53 AM,25.0,14.0,63,30.10,10.0,Calm,Calm,-,N/A,,Mostly Cloudy,0,2013-04-16 10:53:00
5:53 AM,24.1,15.1,69,30.10,10.0,North,3.5,-,N/A,,Overcast,360,2013-04-16 11:53:00
6:53 AM,26.1,15.1,63,30.12,10.0,Calm,Calm,-,N/A,,Overcast,0,2013-04-16 12:53:00
7:53 AM,27.0,14.0,58,30.14,10.0,East,6.9,-,N/A,,Overcast,100,2013-04-16 13:53:00
8:53 AM,27.0,14.0,58,30.15,10.0,East,3.5,-,N/A,,Overcast,80,2013-04-16 14:53:00
9:53 AM,28.0,16.0,61,30.16,10.0,Calm,Calm,-,N/A,,Overcast,0,2013-04-16 15:53:00
10:53 AM,28.9,18.0,64,30.15,10.0,NNW,8.1,-,N/A,,Overcast,340,2013-04-16 16:53:00
11:53 AM,32.0,16.0,52,30.14,10.0,NNW,9.2,-,N/A,,Overcast,330,2013-04-16 17:53:00
12:53 PM,33.1,14.0,46,30.14,10.0,NNW,9.2,19.6,N/A,,Overcast,330,2013-04-16 18:53:00
1:53 PM,34.0,12.9,42,30.12,10.0,NNW,13.8,18.4,N/A,,Overcast,340,2013-04-16 19:53:00
2:53 PM,35.1,12.0,39,30.13,10.0,NNW,16.1,21.9,N/A,,Overcast,330,2013-04-16 20:53:00
3:53 PM,36.0,12.0,37,30.14,10.0,NNW,18.4,26.5,N/A,,Partly Cloudy,340,2013-04-16 21:53:00
4:53 PM,35.1,12.0,39,30.15,10.0,NNW,20.7,-,N/A,,Mostly Cloudy,330,2013-04-16 22:53:00
5:53 PM,33.1,12.0,42,30.18,10.0,NNW,19.6,-,N/A,,Overcast,330,2013-04-16 23:53:00
6:53 PM,32.0,12.9,45,30.18,10.0,NNW,18.4,-,N/A,,Overcast,330,2013-04-17 00:53:00
7:53 PM,30.0,14.0,51,30.21,10.0,NNW,10.4,-,N/A,,Overcast,340,2013-04-17 01:53:00
8:53 PM,28.9,12.9,51,30.23,10.0,NW,13.8,-,N/A,,Overcast,320,2013-04-17 02:53:00
9:53 PM,28.0,12.9,53,30.25,10.0,NW,11.5,-,N/A,,Partly Cloudy,320,2013-04-17 03:53:00
10:53 PM,27.0,14.0,58,30.27,10.0,WNW,8.1,-,N/A,,Overcast,290,2013-04-17 04:53:00
11:53 PM,25.0,12.9,60,30.27,10.0,WNW,11.5,-,N/A,,Overcast,290,2013-04-17 05:53:00